TimeEST,TemperatureF,Dew PointF,Humidity,Sea Level PressureIn,VisibilityMPH,Wind Direction,Wind SpeedMPH,Gust SpeedMPH,PrecipitationIn,Events,Conditions,WindDirDegrees,DateUTC
12:15 AM,33.8,29.3,84,29.98,7.0,Calm,Calm,-,N/A,,Overcast,0,2012-12-29 05:15:00
12:35 AM,33.3,29.8,87,29.97,7.0,Calm,Calm,-,N/A,,Overcast,0,2012-12-29 05:35:00
12:55 AM,33.3,29.5,86,29.97,7.0,Calm,Calm,-,N/A,,Overcast,0,2012-12-29 05:55:00
1:15 AM,33.6,29.7,85,29.96,7.0,Calm,Calm,-,N/A,,Overcast,0,2012-12-29 06:15:00
1:35 AM,33.4,29.8,87,29.94,7.0,North,3.5,-,N/A,,Overcast,360,2012-12-29 06:35:00
1:55 AM,33.8,29.5,84,29.96,7.0,Calm,Calm,-,N/A,,Overcast,0,2012-12-29 06:55:00
2:15 AM,33.4,30.2,88,29.94,7.0,Calm,Calm,-,N/A,,Overcast,0,2012-12-29 07:15:00
2:35 AM,33.3,29.8,87,29.93,5.0,Calm,Calm,-,N/A,,Overcast,0,2012-12-29 07:35:00
2:55 AM,33.4,29.8,87,29.92,7.0,Calm,Calm,-,N/A,,Overcast,0,2012-12-29 07:55:00
3:15 AM,33.4,30.0,87,29.90,5.0,Calm,Calm,-,N/A,,Overcast,0,2012-12-29 08:15:00
3:35 AM,33.3,30.4,89,29.90,5.0,Calm,Calm,-,N/A,Snow,Light Snow,0,2012-12-29 08:35:00
3:55 AM,33.4,30.2,88,29.88,5.0,Calm,Calm,-,N/A,Rain,Light Rain,0,2012-12-29 08:55:00
4:15 AM,34.7,29.3,81,29.84,7.0,SE,3.5,-,N/A,,Overcast,130,2012-12-29 09:15:00
4:35 AM,35.6,29.3,78,29.84,10.0,South,6.9,-,N/A,,Overcast,170,2012-12-29 09:35:00
4:55 AM,35.8,29.3,77,29.82,10.0,South,5.8,-,N/A,,Overcast,190,2012-12-29 09:55:00
5:15 AM,35.8,28.9,76,29.80,10.0,South,8.1,-,N/A,,Overcast,180,2012-12-29 10:15:00
5:35 AM,35.8,28.9,76,29.79,10.0,South,8.1,-,N/A,,Overcast,170,2012-12-29 10:35:00
5:55 AM,35.6,29.3,78,29.77,10.0,South,6.9,-,N/A,,Overcast,170,2012-12-29 10:55:00
6:15 AM,35.2,29.8,81,29.76,10.0,South,5.8,-,N/A,,Overcast,170,2012-12-29 11:15:00
6:35 AM,35.6,30.2,81,29.74,10.0,South,6.9,-,N/A,,Overcast,170,2012-12-29 11:35:00
7:15 AM,35.2,30.7,84,29.76,10.0,SW,4.6,-,N/A,,Overcast,220,2012-12-29 12:15:00
7:35 AM,34.9,31.1,86,29.78,10.0,SW,5.8,-,N/A,,Light Drizzle,230,2012-12-29 12:35:00
7:55 AM,34.7,31.1,87,29.78,10.0,WSW,3.5,-,N/A,,Overcast,240,2012-12-29 12:55:00
8:15 AM,34.7,31.1,87,29.76,4.0,SSE,5.8,-,N/A,Snow,Light Snow,150,2012-12-29 13:15:00
8:35 AM,34.5,31.6,89,29.74,3.0,SSE,5.8,-,N/A,Snow,Light Snow,160,2012-12-29 13:35:00
8:55 AM,34.7,32.0,90,29.74,1.8,SSE,3.5,-,N/A,Snow,Light Snow,160,2012-12-29 13:55:00
9:15 AM,34.7,32.0,90,29.72,0.8,SSE,4.6,-,N/A,Snow,Light Snow,150,2012-12-29 14:15:00
9:35 AM,34.9,32.5,91,29.72,3.0,SSE,3.5,-,0.01,Snow,Light Snow,150,2012-12-29 14:35:00
9:55 AM,35.4,32.9,91,29.71,5.0,SSW,3.5,-,0.01,,Overcast,200,2012-12-29 14:55:00
10:15 AM,35.8,32.7,89,29.71,5.0,SW,4.6,-,N/A,,Overcast,230,2012-12-29 15:15:00
10:35 AM,36.0,32.7,88,29.71,7.0,WSW,5.8,-,N/A,,Overcast,240,2012-12-29 15:35:00
10:55 AM,37.0,32.9,85,29.70,7.0,SSW,5.8,-,N/A,,Overcast,210,2012-12-29 15:55:00
11:15 AM,37.8,32.9,83,29.67,10.0,SSE,4.6,-,N/A,,Overcast,160,2012-12-29 16:15:00
11:35 AM,39.4,33.4,79,29.66,10.0,SW,4.6,-,N/A,,Overcast,220,2012-12-29 16:35:00
11:55 AM,39.7,33.4,78,29.65,10.0,SSW,6.9,-,N/A,,Mostly Cloudy,200,2012-12-29 16:55:00
12:15 PM,40.3,33.6,77,29.63,10.0,South,4.6,-,N/A,,Mostly Cloudy,180,2012-12-29 17:15:00
12:35 PM,42.1,33.8,72,29.62,10.0,SW,11.5,16.1,N/A,,Scattered Clouds,230,2012-12-29 17:35:00
12:55 PM,42.1,33.3,71,29.60,10.0,SSW,9.2,-,N/A,,Scattered Clouds,210,2012-12-29 17:55:00
1:15 PM,43.2,33.3,68,29.59,10.0,SSW,5.8,-,N/A,,Mostly Cloudy,210,2012-12-29 18:15:00
1:35 PM,43.0,33.8,70,29.58,10.0,SW,5.8,-,N/A,,Mostly Cloudy,220,2012-12-29 18:35:00
1:55 PM,46.2,32.7,59,29.57,10.0,West,8.1,-,N/A,,Scattered Clouds,270,2012-12-29 18:55:00
2:15 PM,46.6,32.0,57,29.57,10.0,West,9.2,17.3,N/A,,Clear,260,2012-12-29 19:15:00
2:35 PM,46.4,31.5,56,29.58,10.0,West,11.5,18.4,N/A,,Mostly Cloudy,270,2012-12-29 19:35:00
2:55 PM,47.3,30.2,52,29.59,10.0,WNW,12.7,17.3,N/A,,Overcast,300,2012-12-29 19:55:00
3:15 PM,45.0,28.6,53,29.60,10.0,NW,15.0,21.9,N/A,,Overcast,310,2012-12-29 20:15:00
3:35 PM,44.6,28.0,52,29.61,10.0,WNW,12.7,17.3,N/A,,Overcast,290,2012-12-29 20:35:00
3:55 PM,44.6,27.9,52,29.63,10.0,WNW,10.4,-,N/A,,Overcast,300,2012-12-29 20:55:00
4:15 PM,43.2,27.9,55,29.63,10.0,NW,10.4,-,N/A,,Overcast,310,2012-12-29 21:15:00
4:35 PM,42.6,27.7,56,29.64,10.0,WNW,10.4,17.3,N/A,,Overcast,300,2012-12-29 21:35:00
4:55 PM,42.3,27.0,55,29.66,10.0,WNW,10.4,-,N/A,,Overcast,290,2012-12-29 21:55:00
5:15 PM,41.7,26.8,55,29.66,10.0,West,12.7,17.3,N/A,,Overcast,280,2012-12-29 22:15:00
5:35 PM,41.2,26.8,57,29.67,10.0,WNW,9.2,20.7,N/A,,Mostly Cloudy,290,2012-12-29 22:35:00
5:55 PM,41.0,26.1,55,29.69,10.0,WNW,6.9,-,N/A,,Mostly Cloudy,300,2012-12-29 22:55:00
6:15 PM,41.4,25.2,53,29.71,10.0,WNW,6.9,-,N/A,,Overcast,300,2012-12-29 23:15:00
6:35 PM,40.8,25.3,54,29.72,10.0,West,9.2,-,N/A,,Overcast,280,2012-12-29 23:35:00
6:55 PM,41.0,24.8,53,29.73,10.0,NW,5.8,16.1,N/A,,Overcast,310,2012-12-29 23:55:00
7:15 PM,41.0,24.6,52,29.74,10.0,WNW,13.8,20.7,N/A,,Overcast,300,2012-12-30 00:15:00
7:35 PM,40.3,24.6,54,29.75,10.0,WNW,17.3,23.0,N/A,,Overcast,300,2012-12-30 00:35:00
7:55 PM,39.6,25.0,56,29.76,10.0,WNW,13.8,25.3,N/A,,Overcast,290,2012-12-30 00:55:00
8:15 PM,39.4,24.6,56,29.78,10.0,WNW,16.1,26.5,N/A,,Overcast,300,2012-12-30 01:15:00
8:35 PM,39.0,24.8,57,29.79,10.0,NW,13.8,21.9,N/A,,Overcast,310,2012-12-30 01:35:00
8:55 PM,38.7,25.2,58,29.80,10.0,NW,9.2,-,N/A,,Overcast,310,2012-12-30 01:55:00
9:15 PM,38.7,24.8,58,29.81,10.0,NW,12.7,25.3,N/A,,Overcast,310,2012-12-30 02:15:00
9:35 PM,38.5,23.9,56,29.82,10.0,NW,13.8,20.7,N/A,,Overcast,310,2012-12-30 02:35:00
9:55 PM,38.1,23.7,56,29.82,10.0,WNW,12.7,18.4,N/A,,Overcast,290,2012-12-30 02:55:00
10:15 PM,37.4,24.4,60,29.84,10.0,WNW,12.7,-,N/A,,Overcast,300,2012-12-30 03:15:00
10:35 PM,37.6,23.7,57,29.85,10.0,WNW,9.2,16.1,N/A,,Overcast,300,2012-12-30 03:35:00
10:55 PM,37.2,23.9,59,29.86,10.0,WNW,8.1,-,N/A,,Overcast,300,2012-12-30 03:55:00
11:15 PM,37.4,23.9,58,29.87,10.0,West,6.9,-,N/A,,Overcast,280,2012-12-30 04:15:00
11:35 PM,37.0,24.3,60,29.88,10.0,WNW,4.6,-,N/A,,Overcast,290,2012-12-30 04:35:00
11:55 PM,37.0,23.9,59,29.89,10.0,WNW,3.5,-,N/A,,Overcast,290,2012-12-30 04:55:00